This is the latest recevied weather packets stored in our database for station/object 9W8AKN-L. If no packets are shown the sender has not sent any weather packets the latest 10 day(s).
| Time | Temp. | Humidity | Pressure | Rain* | Wind** | Luminosity | Snow |
|---|---|---|---|---|---|---|---|
| 1777709847 | 28.89° C | 58% | 1006.6 hPa | - | - | - | - |
| 1777708947 | 28.89° C | 59% | 1006.7 hPa | - | - | - | - |
| 1777708046 | 29.44° C | 60% | 1006.7 hPa | - | - | - | - |
| 1777707146 | 29.44° C | 61% | 1006.8 hPa | - | - | - | - |
| 1777706246 | 29.44° C | 61% | 1006.9 hPa | - | - | - | - |
| 1777705346 | 30° C | 62% | 1006.9 hPa | - | - | - | - |
| 1777704446 | 30° C | 63% | 1006.7 hPa | - | - | - | - |
| 1777703545 | 29.44° C | 63% | 1006.9 hPa | - | - | - | - |
| 1777702645 | 30° C | 64% | 1007.1 hPa | - | - | - | - |
| 1777701745 | 29.44° C | 62% | 1007.4 hPa | - | - | - | - |
| 1777700845 | 29.44° C | 63% | 1007.8 hPa | - | - | - | - |
| 1777699945 | 29.44° C | 63% | 1008.2 hPa | - | - | - | - |
| 1777699045 | 29.44° C | 63% | 1008.6 hPa | - | - | - | - |
| 1777698145 | 29.44° C | 65% | 1009.1 hPa | - | - | - | - |
| 1777697245 | 28.89° C | 66% | 1009.6 hPa | - | - | - | - |
| 1777696345 | 28.89° C | 67% | 1009.6 hPa | - | - | - | - |
| 1777695444 | 28.89° C | 68% | 1009.8 hPa | - | - | - | - |
| 1777694544 | 28.89° C | 70% | 1010.1 hPa | - | - | - | - |
| 1777693644 | 28.89° C | 72% | 1010.4 hPa | - | - | - | - |
| 1777692744 | 28.89° C | 75% | 1010.6 hPa | - | - | - | - |
| 1777691844 | 28.89° C | 77% | 1010.9 hPa | - | - | - | - |
| 1777690944 | 28.33° C | 79% | 1011 hPa | - | - | - | - |
| 1777690044 | 28.33° C | 83% | 1011 hPa | - | - | - | - |
| 1777688245 | 28.33° C | 88% | 1011 hPa | - | - | - | - |
| 1777687345 | 28.33° C | 87% | 1011 hPa | - | - | - | - |
* Rain since midnight (hover to see other rain measurements)
** Current wind speed in m/s (hover to see current wind gust speed)